Location: Newark
(48.2308°N, 120.8549°W)
Time: 14:25:42
(UTC+00:00)

Transit 2A Rocket - Pass Details

Date: 27 May 2020
Orbit: 584 x 919 km, 66.7° (Epoch: 07 July)

Event Time Altitude Azimuth Distance (km) Brightness Sun altitude
Rises 11:47:52 0° 311° (NW) 3,336 8.2 -3.9°
Reaches altitude 10° 11:52:01 10° 341° (NNW) 2,482 7.9 -3.3°
Maximum altitude 11:54:17 12° 4° (N) 2,360 8.2 -3.0°
Drops below altitude 10° 11:56:36 10° 27° (NNE) 2,551 9.0 -2.7°
Sets 12:01:02 0° 57° (ENE) 3,538 11.9 -2.1°
